Flag for Japan Weather past 2 weeks in Fukushima, Japan

Now
34 °F

Chilly.


Feels Like: 34 °F
Forecast: 33 / 63 °F
Wind: 2 mph from East

Location: Wakamatsu

Current Time: Mar 29, 2015 at 4:50:35 AM

Latest Report: Mar 29, 2015 at 4:00 AM


Visibility: 13 mi

Pressure: 30.10 "Hg

Humidity: 89%

Dew point: 31 °F

Location of FukushimaLocation

Historic Weather in Fukushima — Graph

°F

Fukushima temperature yesterday

Maximum temperature yesterday: 64 °F (at 3:00 PM)
Minimum temperature yesterday: 30 °F (at 5:00 AM)
Average temperature yesterday: 45 °F

Past Weeks' High & Low Weather Summary

 TemperatureHumidityPressure
High64 °F (Mar 28, 3:00 PM)100% (Mar 17, 5:00 AM)30.53 "Hg (Mar 17, 5:00 AM)
Low25 °F (Mar 15, 5:00 AM)16% (Mar 27, 2:00 PM)29.80 "Hg (Mar 19, 1:00 PM)
Average39 °F77%30.15 "Hg
* Reported Mar 14 3:00 AM — Mar 29 3:00 AM, Fukushima, Weather by CustomWeather, © 2015

Note: Actual official high and low records may vary slightly from our data, if they occured in-between our weather recording intervals... More about our weather records

Advertising

Fukushima weather history for previous 24 hours

 ConditionsComfort  
Time TempWeatherWind HumidityBarometerVisibility
3:00 AM
Sun, Mar 29
36 °FChilly.3 mph83%30.09 "Hg12 mi
2:00 AM37 °FChilly.2 mph83%30.10 "Hg12 mi
1:00 AM37 °FChilly.2 mph85%30.10 "Hg12 mi
12:00 AM38 °FChilly.2 mph79%30.10 "Hg12 mi
11:00 PM
Sat, Mar 28
41 °FQuite cool.2 mph71%30.09 "Hg12 mi
10:00 PM42 °FQuite cool.3 mph72%30.11 "Hg12 mi
9:00 PM44 °FQuite cool.5 mph65%30.10 "Hg12 mi
8:00 PM46 °FCool.1 mph68%30.08 "Hg12 mi
7:00 PM49 °FCool.2 mph59%30.05 "Hg12 mi
6:00 PM55 °FRefreshingly cool.5 mph43%30.02 "Hg12 mi
5:00 PM62 °FRefreshingly cool.7 mph21%30.01 "Hg12 mi
4:00 PM63 °FMild.9 mph19%30.01 "Hg12 mi
3:00 PM64 °FMild.6 mph19%30.02 "Hg12 mi
2:00 PM63 °FMild.7 mph25%30.04 "Hg12 mi
1:00 PM60 °FRefreshingly cool.5 mph26%30.06 "Hg12 mi
11:00 AM52 °FCool.3 mph38%30.14 "Hg12 mi
10:00 AM48 °FCool.1 mph45%30.18 "Hg12 mi
9:00 AM43 °FQuite cool.2 mph56%30.21 "Hg12 mi
8:00 AM37 °FChilly.1 mph66%30.22 "Hg12 mi
7:00 AM33 °FChilly.1 mph81%30.24 "Hg12 mi
5:00 AM30 °FChilly.2 mph90%30.23 "Hg12 mi
4:00 AM30 °FChilly.2 mph90%30.22 "Hg12 mi
Weather by CustomWeather, © 2015

See weather overviewHow to use our weather pages